Find Kosmos-416

NORAD ID: 5215 Int'l Des: 1971-041 Owner: OKB10 Country: SU operational
LEOCIRCULAR

当前视图

正在加载3D地球...

About Kosmos-416

Kosmos-416 (NORAD 5215) is a satellite by OKB10 of SU. It operates in LEO, CIRCULAR orbit

即将过境

Passes for default location (London). Set your location on the main map for personalized predictions.

高度历史

Loading altitude history...

两行轨道根数

1 5215U 71041F 26194.86077911 .00000006 00000-0 12880-3 0 9995
2 5215 74.0131 239.5349 0077594 352.1805 118.3642 12.58072002534141
Epoch: Jul 13, 2026 • Age: 8 hours

当前状态

高度 1492.7 km
远地点 / 近地点 N/A
速度 7.09 km/s
星下点 14.83°N, 54.03°E
类型 other

Most Searched